Temperature
21 21 21 20 20 19 19 19 19 19 19 19 19 19 20 20 19 19 19 19 19 19 19 18 18 18 19 19 19 19 19 19 19 19 19 19 18 18 18 17 17 16 17
22 21 21 21 20 20 19 19 19 19 20 20 20 20 20 20 20 19 19 19 19 19 19 19 19 19 19 19 19 19 19 19 19 19 19 19 19 19 18 18 17 17 17
22 22 22 21 20 20 20 19 20 20 20 20 20 20 20 20 20 20 20 20 19 19 19 19 19 20 20 20 20 20 20 19 19 19 19 18 18 19 19 19 18 18 18
22 22 22 21 21 20 20 20 20 20 20 20 20 20 20 20 20 20 20 20 20 20 20 20 20 20 20 20 20 20 20 19 19 19 18 18 18 19 19 19 19 18 18
21 21 22 22 21 21 20 20 20 20 20 20 20 20 20 20 20 20 20 20 19 19 19 19 19 19 19 19 19 19 19 19 19 19 18 17 17 18 19 19 19 18 18
21 21 22 22 21 21 21 20 20 20 20 20 20 20 20 20 20 19 19 19 19 19 19 19 19 19 19 18 18 18 19 19 19 18 18 17 17 18 18 18 18 18 18
21 21 22 22 21 21 21 21 20 20 20 20 20 20 20 19 19 19 19 19 19 19 19 19 19 19 18 18 18 18 18 18 18 18 17 17 17 17 18 17 17 17 18
21 21 21 22 21 21 21 20 20 20 20 20 20 20 19 19 19 19 19 19 19 19 19 19 19 19 19 18 18 18 18 18 17 17 17 17 17 17 18 17 17 17 17
21 21 20 21 21 21 20 20 20 20 20 20 20 19 19 19 19 19 19 19 19 19 19 19 19 19 19 19 18 18 18 18 17 18 17 17 17 18 18 18 17 17 17
21 20 19 19 19 20 20 20 20 20 20 20 19 19 19 19 19 19 19 19 19 19 19 19 19 19 19 19 19 18 18 18 17 18 18 17 17 18 18 18 18 17 17
20 20 20 20 19 19 19 19 20 20 20 19 19 19 19 19 18 18 18 19 19 19 19 19 19 19 19 19 19 19 18 18 18 18 18 18 18 18 18 18 18 18 17
20 20 20 20 19 19 19 19 19 19 19 19 18 18 18 18 18 18 18 19 19 19 19 19 19 19 18 18 18 18 18 18 18 19 19 18 18 18 18 18 18 18 18
21 20 20 19 19 19 19 19 19 18 18 18 18 18 18 18 18 18 18 18 19 19 19 18 18 18 18 18 18 18 18 18 18 19 19 18 18 18 18 18 18 18 18
21 20 20 20 20 20 19 19 18 18 18 18 18 18 18 18 18 18 18 18 18 18 18 18 18 18 18 18 18 18 18 18 18 18 18 18 18 18 18 18 18 18 18
21 20 20 21 21 21 20 19 19 18 19 18 18 18 18 18 18 18 18 18 18 18 18 18 18 18 18 18 18 18 18 18 18 18 18 18 19 19 18 18 18 18 18
21 21 20 21 20 21 20 20 20 19 19 18 18 18 18 18 18 18 18 18 18 18 18 18 18 18 18 18 18 18 18 18 18 18 18 18 18 19 19 18 18 18 18
21 21 20 20 20 20 20 20 19 19 18 18 18 18 18 18 17 17 17 17 17 17 18 18 18 18 17 17 17 18 18 18 18 18 18 18 18 18 19 19 19 18 18
22 21 21 20 20 20 20 19 19 19 18 18 18 18 17 17 17 17 17 17 17 17 17 17 17 17 17 18 18 18 18 18 18 18 18 18 18 18 18 19 19 19 19
21 21 21 20 20 20 19 19 19 19 19 18 18 18 17 17 17 17 17 16 16 16 16 16 17 17 17 17 17 18 18 18 18 18 18 18 18 18 18 18 19 19 19
21 21 21 20 20 20 19 19 19 19 19 18 18 17 17 17 16 16 16 16 16 16 16 16 16 16 16 17 17 18 17 18 18 18 18 18 18 18 18 18 18 19 19
21 21 21 20 20 20 20 19 19 19 19 19 18 17 17 16 16 16 15 15 15 15 15 15 15 16 16 16 17 17 18 18 18 18 18 18 19 18 18 18 18 18 18
21 21 21 21 20 20 20 20 20 20 19 18 18 17 16 16 16 15 15 15 15 15 15 15 15 15 16 16 16 17 18 19 19 19 18 18 18 18 18 18 18 18 18
21 21 21 20 20 20 20 19 19 19 19 18 18 17 16 16 16 16 15 15 15 15 15 15 15 14 15 16 16 16 18 19 20 20 19 18 18 18 18 18 18 17 17
21 21 20 20 20 20 20 19 19 19 19 19 18 17 16 16 15 15 15 15 15 14 14 14 14 14 14 15 15 16 16 17 18 19 19 18 17 17 17 17 17 17 17
20 20 19 19 19 19 19 19 19 19 18 18 17 17 17 15 15 14 14 14 14 14 14 14 14 14 14 14 15 15 16 16 16 16 18 18 18 17 17 16 16 16 16
19 19 19 19 19 19 19 19 19 18 18 18 17 16 16 15 15 14 14 14 14 14 14 14 14 14 14 14 14 15 15 15 16 16 17 17 17 17 16 16 16 16 16
Wind_Speed
14 19 22 18 17 16 16 17 17 18 17 16 15 14 13 12 12 11 10 10 9 9 10 9 9 9 9 9 10 10 10 10 10 9 10 9 8 7 7 7 5 8 11
17 21 22 19 17 16 16 16 16 16 16 15 14 13 13 12 12 11 10 9 9 9 8 8 7 7 7 8 8 9 9 8 8 8 8 9 7 6 6 4 3 9 9
19 21 21 19 18 17 16 16 15 15 15 14 13 12 12 11 11 10 10 9 8 8 8 7 7 6 6 6 7 7 7 7 6 6 7 6 9 7 5 4 3 7 7
19 20 20 20 18 17 16 16 15 14 14 13 12 11 11 10 10 9 8 7 7 7 6 6 6 5 5 5 5 5 5 5 5 6 7 3 6 10 6 5 5 6 7
17 18 20 20 18 17 16 15 14 14 13 12 12 11 10 10 9 8 7 6 5 5 5 5 4 5 4 4 4 4 4 4 5 9 4 3 3 9 6 7 7 7 8
17 18 21 20 19 18 16 15 14 14 13 12 12 11 10 9 8 7 6 6 5 4 4 4 4 4 4 4 5 5 5 5 8 10 6 6 6 9 7 9 11 10 10
17 17 21 20 19 18 16 15 14 13 13 12 11 10 10 9 8 7 7 6 6 5 5 5 5 5 5 5 6 6 7 7 11 9 7 9 7 9 8 10 13 15 14
16 16 19 18 17 17 16 15 14 13 13 12 11 11 10 9 8 7 7 7 7 7 7 7 7 6 6 7 7 8 8 10 12 11 10 10 7 8 10 12 13 16 18
14 14 16 18 16 15 14 14 13 13 13 12 12 11 10 10 9 9 9 9 9 9 9 9 9 9 9 9 10 10 11 11 13 11 10 10 10 10 12 13 13 14 19
13 13 13 15 15 15 15 14 13 12 12 12 12 12 11 11 12 12 12 13 12 11 11 12 12 12 12 12 12 13 13 13 16 15 11 10 13 12 14 14 14 14 16
11 11 12 13 13 13 13 14 14 13 14 13 14 14 13 13 13 13 14 9 11 12 13 14 14 14 14 16 17 16 14 14 15 13 11 8 14 14 16 16 16 16 16
13 13 11 11 11 12 11 11 12 13 14 14 13 13 13 12 10 11 4 8 13 14 15 16 17 17 17 15 16 18 13 15 14 12 11 11 14 15 17 17 18 18 18
13 13 13 11 11 11 9 9 9 9 10 12 14 13 12 11 10 11 10 10 13 14 14 13 15 14 13 11 10 10 11 12 10 11 9 13 15 17 17 18 18 18 18
12 13 12 12 11 10 9 8 8 8 8 9 10 12 11 8 9 9 8 10 10 10 10 11 10 12 12 13 13 13 13 11 11 11 9 11 15 17 17 17 18 18 19
11 12 12 11 11 10 9 8 8 8 8 9 9 10 11 9 9 9 8 9 11 11 10 10 11 11 11 12 13 14 14 14 13 13 11 13 16 17 17 17 17 17 17
11 11 11 11 11 10 9 9 8 8 8 9 8 10 11 10 9 9 10 10 11 12 12 11 12 12 12 12 13 14 14 15 13 13 14 13 17 19 18 17 16 16 17
11 11 11 11 11 11 10 10 8 8 8 7 8 10 11 11 11 9 10 11 11 12 13 12 13 12 13 13 15 15 14 13 14 14 15 14 14 18 21 19 18 17 17
11 11 11 10 10 10 9 8 6 7 7 7 7 9 10 10 10 9 9 10 10 11 10 10 11 12 12 13 13 13 12 12 15 15 15 15 15 15 17 21 19 18 17
11 11 11 11 10 9 8 6 6 6 6 7 7 7 7 8 9 8 9 9 10 10 10 11 11 11 12 13 13 13 13 13 13 15 16 16 16 16 16 14 18 18 18
10 10 10 10 9 8 6 5 5 5 6 6 6 5 7 7 8 9 9 9 11 11 11 11 12 12 12 12 14 14 13 14 13 15 16 15 15 17 18 17 14 16 21
9 9 10 9 8 7 5 5 5 5 5 5 6 5 7 8 8 8 10 10 11 12 12 14 13 15 13 12 12 13 14 16 16 15 15 15 16 16 16 15 14 13 12
8 8 8 8 8 8 6 5 4 4 5 6 6 5 7 7 8 9 9 11 11 11 13 13 13 13 13 11 11 12 13 13 13 16 14 15 16 14 15 15 14 12 12
6 6 5 6 7 8 7 6 5 5 6 7 7 6 6 7 8 8 10 11 11 12 12 12 13 15 14 13 13 12 11 12 11 11 13 13 13 12 13 13 13 12 13
3 3 4 5 7 8 9 9 9 8 8 7 6 6 7 7 8 8 9 10 10 11 12 12 13 13 14 14 13 13 15 15 12 12 10 11 12 12 13 11 11 11 11
4 4 4 6 8 8 9 10 10 10 8 7 6 6 8 7 7 8 8 9 10 10 11 12 12 13 12 13 13 13 14 13 15 14 13 11 10 10 10 10 9 7 7
9 7 7 7 7 8 9 10 10 10 9 8 8 8 8 7 7 7 8 9 10 10 11 12 12 14 13 13 13 13 13 12 12 13 14 13 10 8 7 5 5 4 4
Wind_Direction
152 145 151 157 150 141 134 130 130 131 132 131 132 133 134 133 128 124 119 115 112 109 107 107 106 102 99 99 107 113 112 112 115 117 116 112 109 110 117 127 168 126 114
145 145 152 157 151 144 138 134 132 132 133 134 135 136 135 133 131 129 127 124 121 119 118 116 115 112 109 109 112 117 119 121 125 127 132 134 126 122 126 139 335 104 131
144 145 154 157 153 148 143 140 139 138 139 140 140 140 139 136 136 136 136 134 129 126 124 124 124 124 124 124 126 128 130 134 140 147 190 163 135 144 147 152 120 126 147
145 148 156 155 156 151 148 147 146 146 146 147 147 148 146 145 145 146 145 145 142 139 138 138 137 136 136 138 140 144 147 151 162 193 213 151 146 143 176 178 171 166 170
144 147 148 156 158 155 153 153 153 153 154 155 156 156 155 154 156 157 158 160 161 159 160 162 161 159 159 162 164 169 174 181 193 231 219 208 184 136 182 193 194 193 191
148 152 149 160 161 160 159 160 162 163 164 165 166 166 167 168 170 173 176 181 185 188 191 192 193 190 190 195 199 203 208 213 227 229 215 224 214 155 195 207 203 206 206
155 154 152 162 164 164 164 166 169 172 174 175 177 179 181 184 188 193 197 203 209 215 219 220 221 220 221 224 227 226 224 228 247 250 233 233 224 161 211 230 218 210 210
157 158 151 162 166 168 170 173 177 180 183 186 188 191 195 201 207 214 219 222 224 228 231 235 238 237 237 237 235 234 235 244 245 244 238 240 196 178 229 249 244 223 213
160 159 158 167 170 173 176 181 185 189 193 197 201 204 208 213 220 227 232 234 235 236 237 240 243 245 245 243 240 235 232 237 259 256 244 240 178 198 229 243 252 240 222
165 168 167 175 174 180 184 188 194 200 204 209 213 217 220 224 227 228 234 228 233 241 244 245 247 247 247 245 242 238 233 233 245 251 241 225 176 208 230 238 243 247 236
173 181 181 180 180 189 193 185 195 205 211 216 220 220 227 237 237 224 230 220 236 247 250 251 252 252 251 244 238 237 235 244 248 251 250 196 180 215 233 236 237 239 242
181 188 190 193 185 197 202 192 208 213 211 220 231 227 229 241 254 260 241 225 244 250 254 252 254 255 251 252 233 219 240 244 255 252 242 185 200 225 237 238 238 238 238
183 188 192 197 194 205 209 214 217 225 225 227 235 240 246 257 254 253 254 234 235 239 247 243 242 249 251 252 263 245 250 262 260 260 248 185 211 229 239 238 237 238 237
184 188 193 193 200 210 221 224 229 235 235 242 238 241 247 252 259 263 262 266 263 254 252 260 260 259 262 263 258 257 254 246 251 258 257 207 219 233 241 240 237 236 236
183 189 192 195 200 206 217 238 240 245 249 245 250 249 251 255 262 268 272 274 274 273 265 257 263 268 266 264 261 258 258 255 248 248 250 219 222 233 241 244 242 239 237
187 190 191 199 202 207 214 225 240 249 248 264 263 263 265 268 272 276 277 275 272 271 272 272 268 267 263 261 262 263 262 260 253 247 251 241 218 225 235 241 244 243 241
191 192 196 202 205 211 221 228 238 249 257 263 271 277 276 273 275 277 279 277 275 277 274 269 267 264 261 259 258 258 257 253 252 247 247 252 247 225 222 229 236 241 243
195 194 201 207 207 214 226 236 249 258 268 272 275 278 282 287 287 286 282 282 288 283 277 272 267 266 263 261 261 258 254 249 246 246 244 242 246 250 230 218 223 232 240
204 203 205 212 217 221 228 238 249 260 269 275 279 283 293 292 294 291 291 294 293 285 280 277 274 269 269 266 263 257 254 251 247 245 243 244 242 241 247 228 213 224 235
204 205 208 208 214 218 220 224 244 256 267 271 281 287 290 290 294 298 292 293 293 289 284 280 281 274 269 269 268 267 259 254 247 245 243 242 242 242 241 244 234 227 225
193 195 199 203 198 202 205 219 228 249 265 274 276 285 285 291 297 294 294 298 288 285 285 285 281 276 269 266 266 265 259 251 246 245 243 244 241 239 239 240 242 245 236
180 183 185 192 192 199 198 213 236 272 276 287 290 285 283 293 297 293 295 292 290 289 282 277 273 275 275 266 261 269 268 258 243 240 238 237 242 241 237 234 235 235 245
174 182 188 193 196 207 206 216 221 237 256 261 271 276 288 299 299 300 296 292 293 287 283 281 279 271 271 268 257 257 266 266 267 246 232 238 240 240 240 237 232 234 238
207 219 223 224 221 217 216 227 237 256 273 293 298 299 301 293 297 298 294 291 288 286 284 278 272 271 269 267 260 250 254 269 273 267 246 231 231 235 239 238 236 234 236
328 296 276 261 249 239 234 235 240 251 265 278 287 288 290 294 292 295 298 297 292 287 286 284 281 271 266 263 265 260 254 252 251 255 259 252 233 230 230 229 234 235 234
358 343 315 288 270 258 248 245 244 254 262 275 279 289 289 295 296 299 300 296 291 289 288 284 280 274 267 265 264 263 259 254 249 246 249 251 249 240 226 224 226 225 220
Height
1526 1526 1527 1529 1533 1536 1539 1541 1543 1545 1546 1548 1549 1550 1551 1551 1552 1553 1554 1554 1555 1556 1557 1558 1558 1559 1559 1559 1559 1559 1560 1560 1560 1560 1560 1561 1561 1561 1561 1561 1562 1563 1563
1525 1525 1527 1530 1534 1537 1540 1542 1545 1546 1548 1549 1550 1551 1552 1553 1554 1555 1556 1556 1557 1558 1558 1559 1559 1560 1560 1560 1560 1561 1561 1561 1561 1562 1562 1562 1563 1563 1563 1563 1563 1565 1564
1524 1526 1528 1531 1534 1538 1541 1543 1546 1547 1549 1550 1552 1553 1554 1555 1556 1556 1557 1558 1558 1559 1559 1560 1560 1560 1561 1561 1561 1562 1562 1562 1563 1563 1563 1566 1565 1564 1564 1565 1565 1565 1566
1525 1527 1529 1532 1535 1538 1541 1544 1546 1548 1550 1551 1552 1554 1555 1556 1557 1557 1558 1558 1559 1560 1560 1560 1561 1561 1561 1561 1562 1562 1562 1563 1563 1564 1566 1568 1568 1566 1565 1565 1566 1566 1567
1526 1528 1530 1533 1536 1539 1542 1545 1547 1549 1550 1551 1553 1554 1555 1556 1557 1557 1558 1558 1559 1559 1560 1560 1560 1560 1561 1561 1561 1562 1562 1562 1563 1564 1567 1567 1568 1566 1565 1566 1566 1567 1567
1527 1530 1531 1534 1536 1539 1542 1545 1547 1549 1550 1552 1553 1554 1555 1556 1556 1557 1557 1558 1558 1558 1559 1559 1559 1559 1559 1560 1560 1560 1561 1561 1562 1565 1566 1566 1566 1565 1565 1566 1566 1567 1567
1529 1531 1532 1534 1537 1540 1542 1545 1547 1548 1550 1551 1553 1554 1555 1555 1556 1556 1556 1557 1557 1557 1557 1558 1558 1558 1558 1558 1558 1559 1559 1559 1560 1564 1564 1564 1564 1563 1564 1565 1565 1566 1566
1531 1533 1533 1535 1538 1540 1543 1545 1546 1548 1549 1551 1552 1553 1554 1555 1555 1555 1555 1555 1555 1556 1556 1556 1556 1556 1556 1557 1557 1557 1557 1557 1560 1562 1562 1562 1561 1560 1561 1562 1563 1564 1565
1532 1534 1534 1536 1538 1540 1542 1544 1546 1547 1549 1550 1551 1552 1553 1553 1554 1554 1554 1554 1554 1554 1554 1554 1555 1555 1555 1555 1555 1555 1555 1555 1556 1559 1559 1559 1557 1557 1558 1559 1560 1561 1562
1532 1534 1535 1537 1538 1540 1542 1544 1545 1547 1548 1549 1550 1551 1551 1552 1552 1552 1552 1552 1552 1552 1552 1552 1552 1553 1553 1552 1553 1553 1553 1553 1554 1556 1556 1555 1554 1554 1554 1555 1556 1557 1559
1530 1533 1536 1538 1539 1540 1543 1543 1544 1545 1546 1547 1548 1549 1549 1550 1552 1551 1551 1550 1550 1550 1550 1550 1550 1550 1550 1549 1550 1550 1550 1550 1552 1553 1553 1552 1550 1550 1551 1551 1552 1553 1555
1528 1531 1534 1537 1538 1540 1542 1543 1543 1545 1545 1545 1547 1547 1547 1548 1549 1550 1549 1548 1548 1547 1547 1547 1547 1546 1546 1547 1547 1546 1546 1547 1548 1548 1548 1546 1546 1546 1546 1547 1548 1549 1550
1528 1530 1532 1534 1535 1537 1539 1541 1542 1544 1544 1544 1545 1545 1545 1545 1546 1546 1546 1546 1545 1544 1544 1545 1544 1544 1544 1544 1544 1543 1543 1544 1544 1544 1544 1542 1542 1542 1543 1543 1544 1545 1546
1527 1529 1531 1532 1533 1535 1537 1539 1540 1541 1542 1543 1543 1542 1542 1542 1542 1543 1542 1543 1543 1542 1541 1541 1541 1540 1539 1539 1539 1539 1539 1538 1538 1538 1538 1537 1538 1538 1539 1540 1540 1541 1542
1526 1528 1530 1530 1531 1533 1534 1536 1537 1539 1540 1540 1539 1539 1539 1539 1539 1539 1538 1537 1537 1537 1537 1536 1535 1535 1534 1534 1534 1534 1534 1534 1534 1534 1533 1533 1533 1534 1535 1536 1536 1537 1538
1525 1527 1529 1529 1531 1532 1533 1534 1535 1536 1536 1536 1536 1536 1536 1535 1534 1534 1533 1532 1532 1531 1531 1530 1529 1529 1528 1528 1527 1528 1528 1528 1528 1528 1528 1529 1528 1529 1530 1531 1531 1532 1533
1524 1526 1527 1528 1529 1530 1531 1532 1533 1533 1534 1533 1533 1533 1532 1531 1531 1530 1529 1527 1527 1526 1525 1524 1523 1523 1522 1522 1521 1521 1521 1521 1521 1522 1522 1523 1524 1523 1524 1525 1526 1527 1528
1523 1524 1525 1527 1528 1529 1530 1530 1531 1532 1532 1532 1531 1530 1529 1528 1527 1526 1525 1523 1522 1520 1519 1518 1517 1517 1516 1515 1515 1514 1514 1514 1514 1515 1515 1516 1517 1518 1519 1518 1519 1521 1522
1520 1522 1523 1525 1526 1528 1528 1529 1529 1530 1530 1529 1529 1528 1527 1525 1524 1522 1521 1519 1517 1516 1515 1513 1512 1511 1510 1509 1508 1507 1507 1507 1508 1508 1509 1510 1510 1511 1512 1513 1513 1514 1516
1518 1519 1521 1522 1524 1525 1527 1527 1528 1528 1528 1528 1527 1525 1524 1522 1521 1519 1517 1515 1513 1512 1510 1509 1507 1505 1504 1503 1503 1502 1501 1501 1501 1501 1502 1503 1503 1504 1505 1507 1507 1508 1508
1515 1516 1519 1521 1522 1523 1525 1526 1527 1527 1527 1526 1524 1522 1520 1518 1516 1513 1512 1510 1508 1507 1505 1503 1502 1500 1499 1499 1497 1495 1494 1494 1494 1494 1495 1496 1496 1497 1498 1499 1500 1501 1502
1514 1516 1517 1519 1521 1522 1523 1523 1524 1524 1524 1522 1520 1518 1516 1513 1511 1509 1507 1505 1503 1501 1498 1496 1495 1494 1493 1494 1492 1491 1489 1488 1486 1487 1487 1488 1489 1490 1491 1492 1492 1493 1495
1513 1515 1516 1517 1518 1520 1520 1521 1521 1520 1519 1519 1517 1515 1512 1509 1506 1504 1501 1499 1497 1495 1493 1491 1489 1488 1487 1487 1487 1486 1484 1480 1480 1480 1480 1481 1482 1483 1484 1485 1486 1487 1487
1513 1515 1515 1515 1516 1517 1517 1518 1518 1518 1517 1516 1513 1511 1508 1505 1502 1499 1497 1494 1492 1490 1487 1485 1484 1482 1481 1480 1480 1479 1479 1478 1477 1475 1475 1475 1475 1476 1477 1479 1480 1480 1480
1513 1513 1513 1513 1513 1514 1514 1514 1514 1514 1513 1512 1509 1507 1504 1502 1498 1495 1493 1490 1487 1485 1482 1480 1477 1476 1475 1473 1473 1473 1472 1471 1471 1471 1470 1470 1470 1470 1471 1472 1473 1474 1475
1511 1511 1511 1510 1510 1510 1510 1510 1510 1509 1508 1507 1505 1503 1501 1499 1496 1493 1489 1486 1483 1481 1478 1475 1472 1470 1468 1467 1466 1466 1466 1465 1465 1465 1464 1464 1464 1465 1465 1466 1467 1468 1469